PROBA-1 1 26958U 01049B 25342.97510771 .00004182 00000+0 27793-3 0 9992 2 26958 97.9594 340.0167 0057526 47.0384 313.5645 15.06419719314971 CUTE-1 (CO-55) 1 27844U 03031E 25342.93670807 .00000569 00000+0 26593-3 0 9995 2 27844 98.6765 348.8888 0009979 24.1223 336.0422 14.24173894164591 CUBESAT XI-IV (CO-57) 1 27848U 03031J 25342.97166608 .00000468 00000+0 22519-3 0 9994 2 27848 98.6794 348.7884 0010172 40.9807 319.2134 14.23482730164317 APRIZESAT 4 1 35684U 09041D 25342.94204002 .00001633 00000+0 20256-3 0 9997 2 35684 98.1642 49.3236 0042831 217.0996 142.7255 14.83479212883159 APRIZESAT 3 1 35686U 09041F 25342.92565746 .00002560 00000+0 22903-3 0 9993 2 35686 98.1786 122.4673 0062150 336.1451 23.6890 14.95394025887936 PROBA-2 1 36037U 09059B 25342.92946584 .00000564 00000+0 14209-3 0 9998 2 36037 98.2374 163.9665 0013817 144.3394 215.8729 14.54706357853864 APRIZESAT 5 1 37792U 11044E 25342.79789090 .00002673 00000+0 34850-3 0 9993 2 37792 98.2355 265.6387 0051332 255.5166 104.0347 14.80557642770615 APRIZESAT 6 1 37793U 11044F 25342.75055006 .00002221 00000+0 32191-3 0 9998 2 37793 98.2454 244.2919 0042984 336.8910 91.6214 14.76522320769042 PROBA-V 1 39159U 13021A 25342.92550271 .00000136 00000+0 77668-4 0 9998 2 39159 98.3386 326.1544 0003777 346.4222 13.6855 14.23545853654045 APRIZESAT 7 1 39416U 13066A 25342.86295820 .00002747 00000+0 28066-3 0 9999 2 39416 97.7467 294.1998 0037587 120.8894 239.6029 14.90881627652863 APRIZESAT 8 1 39425U 13066K 25342.82764924 .00002179 00000+0 24435-3 0 9996 2 39425 97.8001 288.2954 0046019 190.4176 169.6091 14.87098749651377 BUGSAT-1 (TITA) 1 40014U 14033E 25342.95252929 .00006442 00000+0 36265-3 0 9999 2 40014 98.0569 59.6361 0030574 108.8461 251.6089 15.13218570627048 SAUDISAT 4 1 40016U 14033G 25342.85484833 .00001289 00000+0 17799-3 0 9996 2 40016 97.7297 130.9474 0044508 334.5435 25.3585 14.79158131617934 APRIZESAT 9 1 40018U 14033J 25342.32710837 .00001590 00000+0 24150-3 0 9990 2 40018 97.8789 115.5701 0067888 93.9398 266.9575 14.73875710615444 APRIZESAT 10 1 40019U 14033K 25342.90560470 .00001439 00000+0 23360-3 0 9995 2 40019 97.9407 109.4634 0079648 160.5990 199.8279 14.70584246614280 TECHDEMOSAT-1 (TDS-1) 1 40076U 14037H 25342.90005791 .00011308 00000+0 71208-3 0 9992 2 40076 98.3669 312.0059 0006573 173.4163 186.7151 15.09352717619483 TECHNOSAT 1 42829U 17042E 25342.93464307 .00005805 00000+0 42991-3 0 9996 2 42829 97.4038 143.3046 0018633 25.5317 334.6825 15.03361587458101 FLYING LAPTOP 1 42831U 17042G 25342.99939201 .00004968 00000+0 40441-3 0 9992 2 42831 97.4222 141.7916 0015092 61.0254 299.2481 14.99869242457937 HAWK-A 1 43765U 18099H 25342.37926782 .00010413 00000+0 45802-3 0 9992 2 43765 97.4211 32.1902 0036057 234.6120 125.1746 15.21467702384058 HAWK-B 1 43794U 18099AN 25342.71436588 .00009678 00000+0 44663-3 0 9997 2 43794 97.4260 32.3000 0032653 250.1276 109.6439 15.19952686384073 HAWK-C 1 43799U 18099AT 25342.68850232 .00012918 00000+0 51627-3 0 9993 2 43799 97.4189 32.5466 0042624 237.2074 122.5054 15.24396760384851 SALSAT 1 46495U 20068K 25342.92582194 .00011000 00000+0 42738-3 0 9998 2 46495 97.8781 329.9922 0008723 245.6191 114.4136 15.26221222286308 HAWK-2C 1 47502U 21006CT 25342.84740510 .00009189 00000+0 30346-3 0 9997 2 47502 97.2562 26.0324 0008021 151.7192 208.4487 15.31582207270337 HAWK-2A 1 47505U 21006CW 25342.85043981 .00008565 00000+0 28327-3 0 9992 2 47505 97.2606 26.6020 0007501 154.4887 205.6727 15.31557279270338 HAWK-2B 1 47508U 21006CZ 25342.84773994 .00009521 00000+0 31435-3 0 9995 2 47508 97.2477 25.2533 0008221 153.0821 207.0849 15.31578203270335 HAWK-3B 1 48931U 21059BE 25342.92631560 .00032732 00000+0 49179-3 0 9999 2 48931 97.6704 158.8259 0005603 315.3209 44.7592 15.54801445248153 HAWK-3C 1 48948U 21059BX 25342.92609609 .00033167 00000+0 49813-3 0 9994 2 48948 97.6863 164.1266 0006047 316.9677 43.1102 15.54806733248159 HAWK-3A 1 48957U 21059CG 25342.92592196 .00032711 00000+0 49141-3 0 9994 2 48957 97.6792 161.5030 0005708 315.5615 44.5180 15.54804743248150 HAWK-5C 1 52754U 22057Y 25342.94419105 .00020113 00000+0 45105-3 0 9992 2 52754 97.6376 126.8039 0006232 46.0522 314.1239 15.43428505196921 HAWK-5B 1 52756U 22057AA 25342.94401405 .00019738 00000+0 44289-3 0 9991 2 52756 97.6361 125.1618 0006364 42.4468 317.7271 15.43414791196924 HAWK-5A 1 52757U 22057AB 25342.87890418 .00020268 00000+0 45462-3 0 9994 2 52757 97.6369 125.9164 0006564 44.0556 316.1214 15.43418750196913 HAWK-6B 1 55324U 23011A 25342.81448437 .00008765 00000+0 40017-3 0 9991 2 55324 40.5158 20.5309 0002100 179.0722 181.0091 15.20575289158833 HAWK-6C 1 55326U 23011C 25342.81387381 .00008912 00000+0 40666-3 0 9997 2 55326 40.4841 17.6458 0001579 161.8260 198.2605 15.20576151158841 HAWK-6A 1 55327U 23011D 25342.81388578 .00008878 00000+0 40518-3 0 9994 2 55327 40.5002 19.1289 0001409 177.3452 182.7365 15.20576623158843 HAWK-7A 1 56191U 23054P 25342.66389652 .00012544 00000+0 43891-3 0 9990 2 56191 97.2921 229.5121 0007132 21.2517 338.9019 15.29630538147947 HAWK-7B 1 56193U 23054R 25342.66377081 .00009925 00000+0 34795-3 0 9997 2 56193 97.2937 227.7094 0007142 31.9727 328.1945 15.29627568147945 HAWK-7C 1 56200U 23054Y 25342.66355677 .00009915 00000+0 34758-3 0 9991 2 56200 97.2927 228.5298 0006905 25.1695 334.9881 15.29631543147945